Погода в Мазари-Шарифе

Афганистан     36°43′03″N   67°06′53″E
темп.,
°C
ветер,
м/с
пор.,
м/с
влажн.,
%
обл.,
%
осадки,
мм/ч
давл.,
гПа
погр.,
м
24 мая, вт
вт2401:30+20всв46310 0.0 100575
04:30+19всв68330 0.0 1004113
07:30+24всв89250 0.0 1005503
10:30+30всв87160 0.0 10031082
13:30+33всв88134 0.0 10021271
16:30+34всв77110 0.0 10011259
19:30+28св44168 0.0 100124
22:30+25всв22200 0.0 100317
25 мая, ср
ср2501:30+24св22200 0.0 100314
04:30+23всв33210 0.0 100428
07:30+30всв34140 0.0 1005227
10:30+36св53100 0.0 10051101
13:30+39св4280 0.0 10041570
16:30+39св3370 0.0 10031468
19:30+32всв221119 0.0 100411
22:30+30зюз33121 0.0 100413
26 мая, чт
чт2601:30+29юз451882 0.0 100538
04:30+27ююз610217 0.0 1007126
07:30+30зюз9112074 0.0 1009971
10:30+33зюз1010160 0.0 10091580
13:30+34з891658 0.0 10071856
16:30+35з88152 0.0 10062144
19:30+31зюз71219100 0.0 1007233
22:30+29зюз81421100 0.0 1008411
27 мая, пт
пт2701:30+27юз8132366 0.0 1009451
04:30+25юз8122672 0.0 1010370
07:30+26юз9122122 0.0 10121277
10:30+30з10101880 0.0 10131773
13:30+32з991522 0.0 10112629
16:30+32з99155 0.0 10112701
19:30+27зюз611185 0.0 1012214
22:30+25зюз712210 0.0 1014252
28 мая, сб
сб2801:30+23зюз610260 0.0 1014209
04:30+22юз710290 0.0 1015185
07:30+25юз78240 0.0 1016837
10:30+29з77190 0.0 10152117
13:30+31з66170 0.0 10132577
16:30+31з66150 0.0 10112704
19:30+26зюз57170 0.0 101283
22:30+25юз58200 0.0 1012102